Flag for Western Sahara Weather past 2 weeks in El Aaiún, Western Sahara

Now
72 °F

Passing clouds.


Feels Like: 72 °F
Forecast: 71 / 82 °F
Wind: 12 mph from Northeast

Location: Laayoune/Hassan Isl

Current Time: Aug 4, 2015 at 2:43:43 AM

Latest Report: Aug 4, 2015 at 2:00 AM


Visibility: N/A

Pressure: 30.04 "Hg

Humidity: 78%

Dew point: 64 °F

Location of El AaiúnLocation

Historic Weather in El Aaiún — Graph

°F

El Aaiún temperature yesterday

Maximum temperature yesterday: 86 °F (at 3:00 PM)
Minimum temperature yesterday: 66 °F (at 7:00 AM)
Average temperature yesterday: 75 °F

Past Weeks' High & Low Weather Summary

 TemperatureHumidityPressure
High91 °F (Jul 22, 2:00 PM)94% (Aug 1, 5:00 AM)30.07 "Hg (Aug 1, 5:00 AM)
Low64 °F (Aug 2, 6:00 AM)33% (Jul 24, 3:00 PM)29.83 "Hg (Jul 20, 6:00 PM)
Average76 °F68%29.95 "Hg
* Reported Jul 20 1:00 AM — Aug 4 1:00 AM, El Aaiún, Weather by CustomWeather, © 2015

Note: Actual official high and low records may vary slightly from our data, if they occured in-between our weather recording intervals... More about our weather records

Advertising

El Aaiún weather history for previous 24 hours

 ConditionsComfort  
Time TempWeatherWind HumidityBarometerVisibility
1:00 AM
Tue, Aug 4
72 °FPassing clouds.6 mph69%30.04 "HgN/A
12:00 AM72 °FPassing clouds.15 mph78%30.07 "HgN/A
11:00 PM
Mon, Aug 3
73 °FPassing clouds.17 mph69%30.04 "HgN/A
10:00 PM73 °FPassing clouds.18 mph65%30.04 "HgN/A
9:00 PM75 °FPassing clouds.16 mph61%30.04 "HgN/A
8:00 PM79 °FSunny.18 mph54%30.01 "Hg10 mi
7:00 PM81 °FSunny.21 mph51%30.01 "Hg10 mi
6:00 PM84 °FSunny.20 mph40%30.01 "Hg10 mi
5:00 PM86 °FSunny.20 mph38%30.01 "Hg10 mi
4:00 PM86 °FSunny.18 mph38%30.01 "Hg10 mi
3:00 PM86 °FSunny.18 mph35%30.04 "Hg10 mi
2:00 PM84 °FSunny.16 mph40%30.04 "Hg10 mi
1:00 PM82 °FPassing clouds.16 mph45%30.04 "HgN/A
12:00 PM79 °FPassing clouds.16 mph54%30.07 "HgN/A
11:00 AM77 °FScattered clouds.16 mph57%30.07 "HgN/A
10:00 AM73 °FScattered clouds.15 mph74%30.07 "HgN/A
9:00 AM70 °FPassing clouds.13 mph88%30.04 "HgN/A
8:00 AM66 °FPassing clouds.6 mph94%30.04 "HgN/A
7:00 AM66 °FPassing clouds.5 mph94%30.04 "HgN/A
6:00 AM68 °FClear.6 mph88%30.01 "Hg10 mi
5:00 AM68 °FClear.6 mph88%30.01 "Hg10 mi
4:00 AM68 °FClear.7 mph88%30.01 "Hg10 mi
3:00 AM68 °FClear.8 mph88%30.04 "Hg10 mi
2:00 AM70 °FClear.8 mph83%30.04 "Hg10 mi
Weather by CustomWeather, © 2015

See weather overviewHow to use our weather pages